Location: Bollenbach
(48.2926°N, 8.0739°E)
Time: 12:32:13
(UTC+00:00)

Daily predictions for brighter satellites

Satellite Brightness Start Highest point End
(mag) Time Altitude Azimuth Time Altitude Azimuth Time Altitude Azimuth
Cosmos 614 Rocket 4.0 16:02:56 10° NNW 16:08:08 63° ENE 16:13:16 10° SE
BREEZE-M DEB (TANK) 3.1 16:05:09 10° SW 16:08:09 70° SE 16:18:00 10° ENE
Cosmos 1076 Rocket 4.2 16:05:21 10° N 16:09:21 33° ENE 16:13:17 10° SE
Tiangong 0.7 16:08:15 10° WSW 16:10:26 17° SSW 16:12:36 10° SSE
Meteor 2-16 Rocket 4.5 16:05:35 10° S 16:11:41 71° E 16:17:47 10° NNE
NOSS 3-4 (A) 3.9 16:04:51 10° NW 16:11:44 78° NE 16:19:39 10° SE
NOSS 3-4 (C) 3.9 16:05:01 10° NW 16:11:49 78° NE 16:19:40 10° SE
SAR-Lupe-2 3.6 16:08:32 10° SSE 16:12:04 60° ENE 16:15:37 10° N
NOSS 3-3 (C) 4.1 16:07:43 10° SW 16:13:17 71° NW 16:19:52 10° NE
NOSS 3-3 (A) 4.1 16:08:08 10° SW 16:13:40 69° NW 16:20:13 10° NE
Cosmos 2297 Rocket 2.7 16:08:40 10° SW 16:14:15 62° WNW 16:19:54 10° NNE
ERS-2 1.7 16:12:29 10° SSE 16:15:24 77° WSW 16:18:22 10° NNW
Cosmos 1953 Rocket 3.6 16:11:30 10° N 16:15:59 68° E 16:20:23 10° SSE
Cosmos 2219 3.4 16:10:49 10° S 16:16:15 54° ESE 16:21:44 10° NE
Cosmos 44 3.6 16:13:16 10° NNW 16:18:36 55° NE 16:23:43 10° SE
Cosmos 1125 Rocket 4.3 16:13:54 10° SW 16:18:59 51° WNW 16:24:08 10° NNE
DMSP B5D2-2 4.3 16:17:29 10° NNE 16:22:34 51° E 16:27:37 10° S
USA 234 3.9 16:16:52 10° ENE 16:23:03 43° SE 16:29:13 10° SSW
Cosmos 1862 3.2 16:20:13 10° N 16:24:08 88° E 16:28:03 10° S
USA 308 2.1 16:22:33 10° WNW 16:24:39 45° SW 16:26:24 10° SE
USA 307 3.0 16:23:54 10° WNW 16:27:38 45° NNE 16:31:18 10° E
Cosmos 1666 3.3 16:24:58 10° N 16:28:07 30° ENE 16:31:16 10° SE
Cosmos 2084 Rocket 4.1 16:27:00 10° NW 16:30:44 52° SW 16:34:26 10° SSE
ISS -3.8 16:28:32 10° WNW 16:31:54 74° NNE 16:35:15 10° ESE
Cosmos 2279 Rocket 4.0 16:26:51 10° N 16:33:08 73° E 16:39:20 10° SSE
Cosmos 2082 4.0 16:28:18 10° S 16:33:37 47° ESE 16:39:00 10° NE
Meteor 1-27 4.4 16:28:01 10° SSW 16:33:41 76° WNW 16:39:18 10° N
Aureole 3 Rocket 3.4 16:28:59 10° NNW 16:34:03 70° W 16:37:44 10° S
AQUARIUS 4.3 16:30:44 10° SE 16:35:03 51° ENE 16:39:24 10° N
Cosmos 1606 3.9 16:33:48 10° SSW 16:37:14 40° WNW 16:40:43 10° N
COSMO-SKYMED 1 4.0 16:34:41 11° NE 16:37:22 18° E 16:40:24 10° SE
ATLAS CENTAUR R/B 2.6 16:34:42 10° NW 16:38:30 54° NNE 16:45:42 10° ESE
Cosmos 2058 Rocket 3.1 16:34:33 10° S 16:38:58 65° E 16:43:21 10° NNE
YAOGAN 11 4.2 16:41:15 10° NNE 16:45:49 89° W 16:50:22 10° SSW
Cosmos 405 Rocket 2.7 16:42:10 10° SSW 16:45:57 83° WNW 16:49:49 10° N
Helios 1A 3.7 16:44:21 10° NNE 16:48:08 33° E 16:51:53 10° SSE
Cosmos 1140 Rocket 3.9 16:44:52 10° N 16:49:45 39° ENE 16:54:33 10° SE
SMAP 3.1 16:48:36 10° SSE 16:53:15 84° WSW 16:57:57 10° NNW
USA 306 1.1 16:51:12 10° NW 16:53:24 58° NNE 16:54:02 36° E
Nadezhda 4 Rocket 4.2 16:48:16 10° SSE 16:54:05 47° E 16:59:55 10° NNE
NOSS 8 (A) 4.5 16:51:36 10° SSW 16:55:25 58° SE 16:57:08 23° ENE
CZ-4B R/B 4.3 16:58:57 20° ENE 16:58:57 20° ENE 17:01:55 10° NNE
Cosmos 1500 3.0 16:55:28 10° NNW 16:59:01 81° W 17:02:32 10° S
Meteor 1-20 Rocket 4.4 16:54:05 10° N 16:59:26 48° ENE 17:04:52 10° SSE
Cosmos-2242 3.5 16:57:22 10° SSE 17:01:25 39° E 17:05:02 12° NNE
Cosmos 1437 Rocket 3.8 16:59:39 10° NNW 17:03:14 46° W 17:06:49 10° S
NOAA 6 4.1 17:01:58 10° SE 17:06:57 53° ENE 17:11:56 10° N
Cosmos 2263 Rocket 2.1 17:01:48 10° SSW 17:07:20 74° ESE 17:12:14 14° NNE
USA 276 3.1 17:06:11 10° SSW 17:08:10 22° SSE 17:08:15 22° SE
SL-8 R/B 3.7 17:03:51 10° W 17:08:38 79° SSW 17:11:59 20° ESE
Cosmos 1844 Rocket 4.1 17:05:46 10° SE 17:08:55 17° ESE 17:08:55 17° ESE
Cosmos 2227 Rocket 3.2 17:04:48 10° SW 17:10:10 43° NW 17:15:35 10° NNE
RESURS DK-1 4.5 17:08:26 10° N 17:09:17 12° NNE 17:09:17 12° NNE
Cosmos 2151 4.0 17:06:44 10° NNW 17:10:50 48° W 17:14:56 10° SSW
CZ-4 R/B 4.4 17:13:31 10° SSE 17:17:30 54° ENE 17:21:30 10° N
YAOGAN 1 3.7 17:19:24 25° NE 17:19:24 25° NE 17:21:59 10° N
Cosmos 1603 3.8 17:14:41 10° NNW 17:20:16 52° NE 17:25:47 10° SE
Cosmos 1812 2.6 17:17:08 10° S 17:20:43 56° E 17:22:20 29° NNE
Cosmos 2251 Rocket 3.6 17:16:40 10° NNW 17:21:56 55° ENE 17:27:12 10° SE
CZ-4B R/B 3.4 17:17:31 10° SSE 17:22:38 90° NE 17:27:38 10° NNW
SKYMED 2 3.7 17:23:18 23° NNE 17:25:46 53° E 17:30:01 10° S
Cosmos 407 Rocket 3.5 17:21:31 10° NNW 17:26:37 56° ENE 17:31:39 10° SE
USA 305 2.5 17:23:49 10° WNW 17:27:40 71° NNE 17:28:38 47° E
ATLAS 2AS CENTAUR R/B 3.2 17:21:10 10° NW 17:27:41 39° NNE 17:30:16 29° ENE
APEX 4.4 17:25:15 10° S 17:26:37 20° SSE 17:26:37 20° SSE
Meteor 1-31 Rocket 4.3 17:25:37 10° SSW 17:29:02 36° W 17:32:30 10° NNW
Lacrosse 4 Rocket 1.3 17:27:51 10° NNW 17:32:13 71° NE 17:34:32 26° SE
SL-16 R/B 4.1 17:28:17 10° NW 17:33:15 32° WSW 17:38:12 10° SSW
Cosmos 1782 3.5 17:35:00 10° SSE 17:37:38 35° SE 17:37:38 35° SE
Cosmos 1818 4.0 17:34:35 10° S 17:39:37 40° ESE 17:40:24 38° E
Meteor 2-2 Rocket 4.2 17:35:59 10° S 17:41:40 68° E 17:47:28 10° NNE
Meteor 2-9 4.5 17:36:55 10° N 17:42:20 72° ENE 17:47:46 10° SSE
Meteor 2-17 Rocket 4.4 17:38:57 10° S 17:44:58 59° E 17:50:58 10° NNE
Cosmos 1943 3.3 17:41:58 10° NNW 17:47:37 76° WSW 17:53:14 10° SSE
Cosmos 1812 Rocket 3.5 17:45:33 10° S 17:49:53 83° W 17:52:19 26° N
CZ-4B DEB 4.2 17:49:04 23° SE 17:52:27 55° ENE 17:57:51 10° N
Radarsat Rocket 4.1 17:46:52 10° S 17:52:39 72° WSW 17:58:42 10° NNW
SL-08 R/B 3.1 17:54:03 52° NE 17:55:04 73° ESE 17:59:41 10° S
Cosmos 1190 Rocket 4.0 17:50:19 10° NNW 17:55:35 58° ENE 17:56:11 54° E
ADEOS 3.5 17:52:02 10° SSE 17:57:16 86° WSW 18:02:32 10° NNW
USA 307 3.1 17:59:29 10° WNW 18:03:12 55° SW 18:03:12 55° SW
USA 234 3.3 18:03:40 39° NE 18:06:20 74° NNW 18:12:51 10° WSW
ISS -1.9 18:05:33 10° W 18:08:24 27° SW 18:08:24 27° SW
PAYLOAD B 4.5 18:09:59 50° NNE 18:09:59 50° NNE 18:14:30 10° N
Cosmos 1553 Rocket 3.9 18:03:14 10° N 18:09:31 59° ENE 18:10:27 53° ESE
Cosmos 1844 4.4 18:05:28 10° S 18:09:25 37° SSE 18:09:25 37° SSE
Cosmos 2344 3.3 18:05:53 10° SW 18:13:26 82° SE 18:16:07 43° NE
COSMO-SKYMED 1 3.3 18:11:55 29° N 18:13:50 52° WNW 18:18:03 10° SSW
Cosmos 2026 Rocket 4.1 18:16:08 10° SSW 18:22:23 77° W 18:28:45 10° N
Meteor 1-26 Rocket 4.3 18:17:00 10° S 18:21:27 58° SSE 18:21:27 58° SSE
Lacrosse 5 3.1 18:22:00 10° SSW 18:24:55 31° S 18:24:55 31° S
SME Rocket 4.3 18:26:34 13° S 18:31:25 74° WSW 18:39:41 10° NNW
CZ-4B R/B 4.4 18:34:39 34° NW 18:34:39 34° NW 18:37:18 10° NNW
Cosmos 1092 Rocket 4.4 18:29:43 10° SSW 18:35:46 60° WNW 18:41:51 10° N
ATLAS CENTAUR R/B 4.2 18:38:40 10° WNW 18:43:33 42° SW 18:52:07 11° SSE
Cosmos 2263 Rocket 4.1 18:47:22 10° W 18:51:50 24° NW 18:53:55 20° NNW
Cosmos 1844 Rocket 3.5 18:46:54 10° SSW 18:50:37 44° SW 18:50:37 44° SW
Lacrosse 4 Rocket 4.2 19:07:37 10° WNW 19:10:03 15° WSW 19:10:40 14° WSW
ATLAS 2AS CENTAUR R/B 3.2 19:12:13 10° NW 19:17:44 55° WNW 19:17:44 55° WNW
